Hourly Weather Roundup
Issued by NWS Central Illinois

Home | Current Version | Previous Version | Graphics & Text | Print | Product List | Glossary On
Versions: 1 2 3 4 5 6 7 8 9 10 11 12 13 14 15 16 17 18 19 20 21 22 23 24 25 26 27 28 29 30 31 32 33 34 35 36 37 38 39 40 41 42 43 44 45 46 47 48 49 50
000
NZUS43 KILX 040110
HWRILX

AREA WEATHER ROUNDUP
NATIONAL WEATHER SERVICE, LINCOLN IL
800 PM CDT FRI JUL 03 2015


CITY           SKY/WX    TMP DP  RH WIND       PRES   REMARKS
BLOOMINGTON    CLEAR     73  63  71 NE6       29.92S
CHAMPAIGN      CLEAR     71  62  73 N3        29.91S
DANVILLE       CLEAR     69  63  83 N5        29.88S
DECATUR        CLEAR     71  65  81 NE5       29.91R
EFFINGHAM      CLEAR     74  63  67 CALM      29.91R
FLORA          CLEAR     73  67  79 N3        29.89R
GALESBURG      CLEAR     71  63  75 N5        29.93R
JACKSONVILLE   CLEAR     75  68  79 CALM      29.90S
LACON          CLEAR     71  61  70 CALM      29.91S
LAWRENCEVILLE  MOCLDY    74  68  81 NE6       29.88S
LITCHFIELD     CLEAR     73  64  74 CALM      29.90S
$$


CITY           SKY/WX    TMP DP  RH WIND       PRES   REMARKS
LINCOLN        CLEAR     73  64  72 CALM      29.90S
MACOMB         CLEAR     73  65  76 N3        29.94S
MATTOON        CLEAR     72  65  78 N8        29.89R
MT CARMEL AP   PTCLDY    73  68  83 CALM      29.88R
OLNEY-NOBLE AP CLEAR     73  68  83 N5        29.89R
PARIS          CLEAR     73  65  77 N3        29.90S
PEORIA         CLEAR     76  59  55 N3        29.91S
PONTIAC        CLEAR     71  62  74 NE3       29.92S
RANTOUL        CLEAR     74  63  69 CALM      29.91S
ROBINSON       PTCLDY    73  65  76 NE6       29.89S
SPRINGFIELD    CLEAR     76  65  68 NE5       29.90S
TAYLORVILLE    PTCLDY    72  64  78 NE5       29.90S
$$

...REGIONAL REPORTS...


CITY           SKY/WX    TMP DP  RH WIND       PRES   REMARKS
CHICAGO O`HARE MOCLDY    70  49  47 E7        29.91S
KANKAKEE       CLEAR     70  60  71 NE6       29.92R
MOLINE         CLEAR     73  61  65 CALM      29.92S
MOUNT STERLING NOT AVBL
MOUNT VERNON   CLOUDY    73  64  73 CALM      29.89S
PITTSFIELD     CLEAR     76  64  66 CALM      29.92S
QUINCY         CLEAR     74  63  68 N5        29.92R
ROCKFORD       PTCLDY    73  58  59 W5        29.93F
$$


CITY           SKY/WX    TMP DP  RH WIND       PRES   REMARKS
BURLINGTON     CLEAR     73  62  68 N7        29.92S
CEDAR RAPIDS   CLEAR     73  59  61 N3        29.93F
DES MOINES     PTCLDY    75  58  55 S6        29.94S
KIRKSVILLE     CLEAR     73  61  65 N5        29.94S
OTTUMWA        CLEAR     72  61  68 N5        29.93S
ST LOUIS       PTCLDY    79  64  60 N7        29.90R HX  81
$$


CITY           SKY/WX    TMP DP  RH WIND       PRES   REMARKS
TERRE HAUTE    CLOUDY    73  65  75 NE5       29.89R
EVANSVILLE     MOCLDY    76  72  87 CALM      29.87R FOG
INDIANAPOLIS   CLOUDY    71  62  73 N8        29.88R
LAFAYETTE      PTCLDY    70  63  78 CALM      29.89S
MADISON        CLEAR     71  54  54 CALM      29.92S
MILWAUKEE      MOCLDY    65  53  65 SE5       29.92S
$$




USA.gov is the U.S. government's official web portal to all federal, state and local government web resources and services.